User: anonymous
Location: Dover
(39.1580°N, 75.5250°W)
Time: 07:05:20
(UTC-04:00)
Language:

Cosmos 1437 Rocket - Orbit

View from above orbital plane
View from above orbital plane
View from above satellite
View from above satellite

Ground track
Ground track

The orbit data is extracted from the following two-line orbital elements,

1 13771U 83003B   14237.75651267  .00001773  00000-0  11743-3 0  1066
2 13771 081.1544 104.5419 0031165 158.5637 201.6900 15.06433751719021
Epoch (UTC): 25 August 2014 18:09:22
Eccentricity: 0.0031165
inclination: 81.1544°
perigee height: 525 km
apogee height: 568 km
right ascension of ascending node: 104.5419°
argument of perigee: 158.5637°
revolutions per day: 15.06433751
mean anomaly at epoch: 201.6900°
orbit number at epoch: 71902

The dashed part of the orbit path shows where the satellite is in the earth's shadow,  

DLR